This is the latest recevied weather packets stored in our database for station/object KG5APU. If no packets are shown the sender has not sent any weather packets the latest 10 day(s).
| Time | Temp. | Humidity | Pressure | Rain* | Wind** | Luminosity | Snow |
|---|---|---|---|---|---|---|---|
| 1788147417 | 28.89° C | 58% | 1014.9 hPa | 0 mm | - | 0 W/m² | - |
| 1788146818 | 28.89° C | 58% | 1014.7 hPa | 0 mm | - | 0 W/m² | - |
| 1788146219 | 29.44° C | 56% | 1014.6 hPa | 0 mm | - | 0 W/m² | - |
| 1788145612 | 29.44° C | 57% | 1014.7 hPa | 0 mm | - | 0 W/m² | - |
| 1788145009 | 30° C | 57% | 1014.6 hPa | 0 mm | - | 0 W/m² | - |
| 1788144407 | 30.56° C | 56% | 1014.4 hPa | 0 mm | - | 0 W/m² | - |
| 1788143804 | 31.11° C | 54% | 1014.4 hPa | 0 mm | - | 0 W/m² | - |
| 1788143198 | 31.67° C | 52% | 1014.3 hPa | 0 mm | - | 0 W/m² | - |
| 1788142598 | 31.67° C | 52% | 1014.2 hPa | 0 mm | - | 0 W/m² | - |
| 1788141996 | 31.67° C | 53% | 1014 hPa | 0 mm | - | 0 W/m² | - |
| 1788141392 | 31.11° C | 57% | 1014 hPa | 0 mm | - | 0 W/m² | - |
| 1788140792 | 31.11° C | 57% | 1014.1 hPa | 0 mm | - | 0 W/m² | - |
| 1788140189 | 31.67° C | 54% | 1013.5 hPa | 0 mm | - | 0 W/m² | - |
| 1788139590 | 32.78° C | 50% | 1013.8 hPa | 0 mm | - | 0 W/m² | - |
| 1788138990 | 32.78° C | 48% | 1013.5 hPa | 0 mm | - | 0 W/m² | - |
| 1788138387 | 33.33° C | 46% | 1013.5 hPa | 0 mm | - | 1 W/m² | - |
| 1788137782 | 33.89° C | 44% | 1013.7 hPa | 0 mm | - | 3 W/m² | - |
| 1788137179 | 34.44° C | 41% | 1013.5 hPa | 0 mm | - | 8 W/m² | - |
| 1788136577 | 35° C | 40% | 1013.4 hPa | 0 mm | - | 16 W/m² | - |
| 1788135977 | 35.56° C | 38% | 1013.4 hPa | 0 mm | - | 27 W/m² | - |
| 1788135373 | 35.56° C | 38% | 1013.3 hPa | 0 mm | - | 40 W/m² | - |
| 1788134772 | 36.11° C | 37% | 1013.5 hPa | 0 mm | - | 45 W/m² | - |
| 1788134170 | 36.67° C | 38% | 1013.6 hPa | 0 mm | - | 71 W/m² | - |
| 1788133566 | 36.67° C | 38% | 1013.6 hPa | 0 mm | - | 92 W/m² | - |
| 1788132962 | 36.67° C | 37% | 1013.6 hPa | 0 mm | - | 114 W/m² | - |
* Rain latest hour (hover to see other rain measurements)
** Current wind speed in m/s (hover to see current wind gust speed)